Location: Andershausen
(51.8462°N, 9.8595°E)
Time: 02:19:54
(UTC+00:00)

Cosmos 1869 - Pass Details

Date: 18 November 2025
Orbit: 453 x 480 km, 82.5° (Epoch: 13 December)

Event Time Altitude Azimuth Distance (km) Brightness Sun altitude
Rises 16:41:30 0° 179° (S) 2,487 6.9 -11.5°
Reaches altitude 10° 16:43:36 10° 175° (S) 1,611 5.8 -11.8°
Maximum altitude 16:47:02 56° 97° (E) 558 3.0 -12.3°
Drops below altitude 10° 16:50:29 10° 18° (NNE) 1,611 5.4 -12.8°
Enters shadow 16:51:14 - 16° (NNE) 1,922 5.8 -12.9°
